| time (UTC) | temp F | wind direction | speed MPH | gust MPH | rain 1hr in | rain 24hr in | rain mn in | humidity % | barometer mb |
| 20260906110038 | 43 | 0.0 | 0.0 | 0.00 | 0.01 | 0.01 | 89 | 1029.5 | |
| 20260906103038 | 42 | 0.0 | 0.0 | 0.00 | 0.01 | 0.01 | 92 | 1029.0 | |
| 20260906100017 | 41 | 0.0 | 0.0 | 0.00 | 0.01 | 0.01 | 92 | 1028.3 | |
| 20260906093039 | 41 | 0.0 | 0.0 | 0.00 | 0.01 | 0.01 | 91 | 1028.6 | |
| 20260906090017 | 42 | 0.0 | 0.0 | 0.00 | 0.01 | 0.01 | 90 | 1028.0 | |
| 20260906083017 | 44 | 0.0 | 0.0 | 0.00 | 0.01 | 0.01 | 88 | 1027.6 | |
| 20260906080017 | 45 | 0.0 | 0.0 | 0.00 | 0.01 | 0.01 | 86 | 1027.4 | |
| 20260906073017 | 46 | 0.0 | 7.0 | 0.00 | 0.01 | 0.01 | 85 | 1027.8 | |
| 20260906070018 | 48 | 0.0 | 5.0 | 0.00 | 0.01 | 0.01 | 83 | 1027.7 | |
| 20260906063057 | 49 | 0.0 | 0.0 | 0.00 | 0.01 | 0.01 | 81 | 1027.4 | |
| 20260906060016 | 50 | 0.0 | 5.0 | 0.00 | 0.01 | 0.01 | 81 | 1027.6 | |
| 20260906053017 | 52 | 270 | 1.0 | 7.0 | 0.00 | 0.02 | 0.01 | 78 | 1027.7 |
| 20260906050016 | 53 | 270 | 3.0 | 9.0 | 0.00 | 0.02 | 0.01 | 76 | 1027.9 |
| 20260906043018 | 52 | 270 | 3.0 | 9.0 | 0.00 | 0.03 | 0.01 | 76 | 1027.8 |
| 20260906040016 | 53 | 270 | 4.0 | 9.0 | 0.00 | 0.17 | 0.01 | 77 | 1027.7 |
| 20260906033018 | 53 | 270 | 3.0 | 9.0 | 0.00 | 0.17 | 0.01 | 76 | 1027.6 |
| 20260906030056 | 53 | 270 | 3.0 | 8.0 | 0.00 | 0.17 | 0.01 | 78 | 1027.6 |
| 20260906020017 | 52 | 270 | 3.0 | 9.0 | 0.00 | 0.17 | 0.01 | 80 | 1028.1 |
| 20260906013016 | 51 | 270 | 3.0 | 10.0 | 0.00 | 0.17 | 0.01 | 82 | 1028.1 |
| 20260906010018 | 49 | 270 | 3.0 | 7.0 | 0.00 | 0.17 | 0.01 | 85 | 1027.7 |
| 20260906003018 | 47 | 270 | 3.0 | 9.0 | 0.00 | 0.17 | 0.01 | 88 | 1027.3 |
| 20260906000020 | 46 | 270 | 3.0 | 13.0 | 0.00 | 0.17 | 0.01 | 88 | 1026.8 |
| 20260905233018 | 44 | 270 | 3.0 | 9.0 | 0.00 | 0.17 | 0.01 | 91 | 1026.5 |
| 20260905230119 | 44 | 270 | 3.0 | 12.0 | 0.00 | 0.17 | 0.01 | 92 | 1026.4 |
| 20260905223018 | 43 | 270 | 3.0 | 12.0 | 0.00 | 0.17 | 0.01 | 93 | 1026.1 |
| 20260905220018 | 42 | 270 | 2.0 | 9.0 | 0.01 | 0.17 | 0.01 | 93 | 1025.7 |
| 20260905213019 | 41 | 45 | 1.0 | 4.0 | 0.01 | 0.17 | 0.01 | 93 | 1025.0 |
| 20260905210019 | 40 | 270 | 3.0 | 11.0 | 0.00 | 0.16 | 0.00 | 93 | 1024.5 |
| 20260905203038 | 40 | 270 | 3.0 | 11.0 | 0.00 | 0.16 | 0.00 | 93 | 1023.9 |
| 20260905200018 | 40 | 270 | 3.0 | 14.0 | 0.00 | 0.18 | 0.00 | 93 | 1023.8 |
| 20260905193020 | 40 | 270 | 4.0 | 12.0 | 0.00 | 0.18 | 0.00 | 93 | 1023.5 |
| 20260905190018 | 40 | 248 | 5.0 | 14.0 | 0.00 | 0.18 | 0.00 | 93 | 1022.8 |
| 20260905183018 | 40 | 270 | 6.0 | 13.0 | 0.00 | 0.18 | 0.00 | 92 | 1022.8 |
| 20260905180017 | 41 | 270 | 6.0 | 14.0 | 0.00 | 0.18 | 0.00 | 92 | 1022.6 |
| 20260905173017 | 41 | 270 | 5.0 | 17.0 | 0.00 | 0.18 | 0.00 | 90 | 1022.3 |
| 20260905170017 | 42 | 270 | 5.0 | 15.0 | 0.00 | 0.18 | 0.00 | 90 | 1022.3 |
| 20260905163018 | 43 | 270 | 7.0 | 19.0 | 0.00 | 0.18 | 0.00 | 89 | 1022.2 |
| 20260905160017 | 43 | 270 | 6.0 | 15.0 | 0.00 | 0.18 | 0.00 | 88 | 1023.7 |
| 20260905153017 | 44 | 270 | 5.0 | 17.0 | 0.00 | 0.18 | 0.00 | 86 | 1023.6 |
| 20260905150058 | 45 | 270 | 7.0 | 17.0 | 0.00 | 0.18 | 0.00 | 86 | 1023.9 |
| 20260905143057 | 47 | 270 | 8.0 | 16.0 | 0.00 | 0.18 | 0.00 | 86 | 1024.5 |
| 20260905140017 | 48 | 270 | 8.0 | 16.0 | 0.00 | 0.18 | 0.18 | 82 | 1023.9 |
| 20260905133018 | 49 | 270 | 7.0 | 15.0 | 0.00 | 0.18 | 0.18 | 82 | 1023.4 |
| 20260905130017 | 50 | 270 | 7.0 | 15.0 | 0.00 | 0.18 | 0.18 | 86 | 1023.1 |
| 20260905123017 | 51 | 270 | 6.0 | 12.0 | 0.00 | 0.18 | 0.18 | 87 | 1022.9 |
| 20260905120018 | 52 | 270 | 6.0 | 12.0 | 0.00 | 0.18 | 0.18 | 86 | 1023.5 |
| 20260905113018 | 53 | 248 | 6.0 | 12.0 | 0.00 | 0.18 | 0.18 | 88 | 1023.4 |